Location: Mitty Observatory
(35.9148°N, 88.8847°W)
Time: 22:18:01
(UTC-06:00)

Envisat - Visible Passes

Search period start: 12 November 2019 00:00
Search period end: 22 November 2019 00:00
Orbit: 764 x 766 km, 98.1° (Epoch: 12 November)

Date Brightness Start Highest point End Pass type
(mag) Time Alt. Az. Time Alt. Az. Time Alt. Az.
12 Nov 3.7 17:16:43 10° SE 17:21:10 32° ENE 17:25:38 10° N visible
12 Nov 5.2 18:55:59 10° SSW 19:00:09 25° W 19:04:21 10° NW visible
13 Nov 6.2 05:29:55 10° ENE 05:32:20 13° E 05:34:44 10° ESE visible
13 Nov 3.5 18:18:14 10° S 18:23:14 61° W 18:28:17 10° NNW visible
14 Nov 3.0 17:41:34 10° SSE 17:46:31 57° ENE 17:51:30 10° N visible
14 Nov 6.0 19:23:19 10° WSW 19:25:51 14° W 19:28:25 10° WNW visible
15 Nov 5.7 05:53:55 10° NE 05:58:02 25° E 06:02:09 10° SSE visible
15 Nov 4.7 18:44:17 10° SSW 18:48:49 33° W 18:53:22 10° NNW visible
16 Nov 3.1 18:06:54 10° S 18:11:58 79° WSW 18:17:04 10° NNW visible
17 Nov 3.3 17:30:30 10° SE 17:35:18 44° ENE 17:40:07 10° N visible
17 Nov 5.7 19:11:05 10° SW 19:14:29 18° W 19:17:55 10° NW visible
18 Nov 5.9 05:43:05 10° NE 05:46:42 19° E 05:50:16 10° SE visible
18 Nov 4.2 18:32:43 10° S 18:37:30 42° W 18:42:19 10° NNW visible
19 Nov 2.9 17:55:38 10° SSE 18:00:42 82° ENE 18:05:48 10° N visible
20 Nov 3.6 17:19:32 10° SE 17:24:05 35° ENE 17:28:40 10° N visible
20 Nov 5.3 18:59:08 10° SSW 19:03:08 23° W 19:07:08 10° NW visible
21 Nov 6.1 05:32:30 10° ENE 05:35:19 15° E 05:38:08 10° SE visible
21 Nov 3.7 18:21:15 10° S 18:26:12 55° W 18:31:11 10° NNW visible
